FW6240 Weather Reports


time (UTC)temp
F
wind
direction
speed
knots
gust
knots
rain 1hr
in
rain 24hr
in
rain mn
in
humidity
%
barometer
mb
20260508203056 53 13 7.0 10.4 0.00 0.09 0.00 73 1001.6
20260508201556 52 24 6.1 8.7 0.00 0.09 0.00 75 1001.6
20260508200053 52 90 2.6 7.0 0.00 0.09 0.00 75 1001.6
20260508194616 50 65 3.5 7.8 0.00 0.28 0.00 78 1001.6
20260508193048 49 38 3.5 7.8 0.00 0.28 0.00 77 1001.5
20260508191548 50 22 3.5 7.8 0.00 0.28 0.00 78 1001.4
20260508190048 49 45 4.3 7.8 0.00 0.28 0.00 79 1001.5
20260508184548 50 50 4.3 7.8 0.00 0.56 0.00 78 1001.5
20260508183047 51 37 3.5 8.7 0.00 0.56 0.00 76 1001.4
20260508181610 52 37 4.3 9.6 0.00 0.56 0.00 77 1001.3
20260508180054 51 31 6.1 11.3 0.00 0.56 0.00 81 1001.6
20260508174546 51 44 7.0 11.3 0.00 0.56 0.00 81 1001.8
20260508173045 50 36 6.1 12.2 0.00 0.56 0.00 84 1001.8
20260508171543 50 37 9.6 13.9 0.00 0.56 0.00 82 1001.6
20260508170042 50 60 7.8 13.9 0.00 0.56 0.00 81 1001.8
20260508164541 50 38 8.7 13.9 0.00 0.56 0.00 78 1001.7
20260508163043 51 50 7.0 11.3 0.00 0.56 0.00 78 1001.6
20260508161540 51 34 7.0 12.2 0.00 0.56 0.00 77 1001.5
20260508160039 51 36 4.3 8.7 0.00 0.56 0.00 78 1001.7
20260508154640 50 31 6.1 9.6 0.00 0.56 0.00 78 1001.7
20260508153045 50 40 5.2 10.4 0.00 0.56 0.00 83 1002.1
20260508151537 50 34 6.1 10.4 0.00 0.56 0.00 84 1002.2
20260508150037 50 34 7.8 9.6 0.00 0.56 0.00 83 1001.9
20260508144536 50 28 5.2 8.7 0.00 0.56 0.00 82 1002.2
20260508143037 50 25 3.5 8.7 0.00 0.56 0.00 81 1002.4
20260508141535 50 27 6.1 8.7 0.00 0.56 0.00 81 1002.6
20260508140037 50 24 5.2 8.7 0.00 0.56 0.00 80 1002.7
20260508134533 51 31 3.5 6.1 0.00 0.56 0.00 76 1002.6
20260508133038 51 22 1.7 5.2 0.00 0.56 0.00 77 1002.4
20260508131527 51 22 1.7 5.2 0.00 0.56 0.00 82 1002.5
20260508130027 50 22 2.6 4.3 0.00 0.56 0.00 83 1002.5
20260508124521 50 18 2.6 5.2 0.00 0.57 0.00 84 1002.3
20260508123018 49 17 1.7 3.5 0.00 0.57 0.00 86 1002.3
20260508121517 47 17 0.9 3.5 0.00 0.57 0.00 92 1002.5
20260508120015 47 17 0.9 2.6 0.00 0.57 0.00 94 1002.6
20260508114513 46 17 0.9 2.6 0.00 0.57 0.00 94 1002.5
20260508113014 45 17 1.7 2.6 0.00 0.57 0.00 95 1002.6
20260508111514 45 17 0.0 1.7 0.00 0.57 0.00 96 1002.8
20260508110011 44 17 0.0 0.9 0.00 0.57 0.00 96 1002.9
20260508104511 43 17 0.0 0.0 0.00 0.57 0.00 96 1002.7
20260508103016 43 17 0.0 0.9 0.00 0.57 0.00 96 1002.8
20260508101507 42 17 0.0 1.7 0.00 0.57 0.00 96 1002.6
20260508100006 41 17 0.0 2.6 0.00 0.57 0.00 96 1002.3
20260508094505 41 17 1.7 3.5 0.00 0.57 0.00 96 1002.1
20260508093005 40 19 0.0 0.0 0.00 0.57 0.00 95 1002.2
20260508091505 40 20 0.9 2.6 0.00 0.57 0.00 95 1002.1
20260508090001 40 19 0.9 2.6 0.00 0.57 0.00 95 1001.9
20260508084559 41 19 0.0 1.7 0.00 0.57 0.00 95 1001.6
20260508083101 41 19 0.0 0.0 0.00 0.57 0.00 95 1001.8
20260508081619 41 19 0.0 2.6 0.00 0.57 0.00 95 1001.4
20260508080058 42 19 0.0 2.6 0.00 0.57 0.00 94 1001.3
20260508074551 42 19 0.0 0.9 0.00 0.57 0.00 94 1001.8
20260508073052 43 19 0.9 2.6 0.00 0.57 0.00 94 1001.9
20260508071549 43 20 0.0 0.9 0.00 0.57 0.00 95 1001.9
20260508070052 44 20 0.9 3.5 0.00 0.57 0.00 95 1001.8
20260508064545 44 19 1.7 3.5 0.00 0.57 0.00 95 1001.7
20260508063043 43 28 0.9 2.6 0.00 0.57 0.00 95 1001.8
20260508061543 43 28 0.9 2.6 0.00 0.57 0.00 95 1001.6
20260508060042 43 27 0.0 3.5 0.00 0.57 0.00 95 1001.8
20260508054545 43 26 0.9 2.6 0.00 0.57 0.00 95 1001.8
20260508053040 43 19 0.9 2.6 0.00 0.57 0.00 94 1001.9
20260508051538 43 19 0.9 4.3 0.00 0.57 0.00 94 1001.8
20260508050037 44 25 4.3 9.6 0.00 0.57 0.00 93 1001.8
20260508044537 44 30 2.6 7.0 0.00 0.57 0.00 93 1001.6
20260508043030 45 29 2.6 4.3 0.00 0.57 0.00 93 1001.7
20260508041527 46 34 1.7 4.3 0.00 0.57 0.00 92 1001.8
20260508040022 47 11 2.6 4.3 0.00 0.57 0.00 93 1001.9
20260508034519 49 213 1.7 2.6 0.00 0.57 0.00 94 1001.8
20260508033020 49 213 0.0 2.6 0.00 0.57 0.00 94 1001.8
20260508031519 49 197 0.0 1.7 0.00 0.57 0.00 94 1001.7
20260508030016 49 197 1.7 5.2 0.00 0.57 0.57 94 1001.7
20260508024515 49 226 0.0 6.1 0.00 0.57 0.57 94 1001.9
20260508023015 49 244 1.7 4.3 0.00 0.57 0.57 94 1001.9
20260508021511 49 207 1.7 5.2 0.00 0.57 0.57 94 1001.9
20260508020010 49 281 1.7 5.2 0.00 0.57 0.57 94 1002.0
20260508014508 50 287 1.7 4.3 0.00 0.57 0.57 95 1002.1
20260508013005 50 306 0.9 2.6 0.00 0.57 0.57 94 1001.7
20260508011609 50 307 0.0 3.5 0.00 0.57 0.57 95 1001.7
20260508010006 50 346 0.9 3.5 0.00 0.57 0.57 94 1001.8
20260508004503 50 355 0.0 0.0 0.00 0.57 0.57 94 1001.8
20260508003002 50 355 0.0 1.7 0.00 0.57 0.57 94 1002.1
20260508001502 51 355 0.9 4.3 0.00 0.57 0.57 94 1001.9
20260508000001 51 343 0.0 2.6 0.00 0.57 0.57 95 1001.6
20260507234606 50 344 1.7 4.3 0.00 0.57 0.57 94 1001.1
20260507233057 51 302 1.7 3.5 0.00 0.57 0.57 93 1001.1
20260507231601 51 295 0.9 2.6 0.00 0.57 0.57 93 1001.2
20260507230100 51 295 0.0 3.5 0.00 0.57 0.57 93 1000.9
20260507224555 53 296 1.7 2.6 0.00 0.57 0.57 91 1000.9
20260507223056 54 292 1.7 3.5 0.00 0.57 0.57 93 1000.8
20260507221552 55 282 0.0 1.7 0.00 0.57 0.57 93 1000.9
20260507220052 55 283 0.0 2.6 0.00 0.57 0.57 93 1000.8
20260507214555 55 283 0.0 3.5 0.00 0.57 0.57 94 1000.8
20260507213049 54 214 0.0 4.3 0.01 0.57 0.57 94 1001.1
20260507211551 54 188 6.1 10.4 0.03 0.57 0.57 93 1000.9
20260507210050 54 252 2.6 10.4 0.08 0.57 0.57 93 1001.7
20260507204547 54 172 5.2 15.6 0.14 0.57 0.57 93 1000.6